Location: Altessano
(45.1333°N, 7.6500°E)
Time: 06:25:59
(UTC+00:00)

Daily predictions for brighter satellites

Satellite Brightness Start Highest point End
(mag) Time Altitude Azimuth Time Altitude Azimuth Time Altitude Azimuth
Cosmos 1867 4.1 17:57:00 10° NNW 18:02:15 44° NE 18:07:26 10° ESE
Lacrosse 5 rocket 3.2 18:03:11 10° W 18:06:55 29° NNW 18:10:48 10° NE
CSL-04 Debris 4.2 18:02:09 10° SSE 18:07:27 63° ENE 18:12:48 10° N
Cosmos 1939 Rocket 4.1 18:05:56 10° S 18:09:54 48° W 18:13:57 10° NNW
CZ-2D R/B 3.9 18:06:07 10° S 18:09:57 61° W 18:13:49 10° NNW
Sich 1 Rocket 4.1 18:06:28 10° SSE 18:10:38 39° E 18:14:51 10° NNE
Meteor 1-21 4.2 18:08:40 10° N 18:14:17 72° ENE 18:19:51 10° SSE
Helios 1A Rocket 4.4 18:10:48 10° S 18:14:39 41° W 18:18:35 10° NNW
Cosmos 807 4.3 18:12:00 10° S 18:15:02 61° E 18:18:39 10° NNE
MOS 1 Rocket 3.6 18:10:56 10° NNE 18:15:07 38° E 18:19:08 10° SSE
CSL-04 Rocket 3.7 18:10:31 10° SSE 18:15:53 71° ENE 18:21:23 10° N
Cosmos 1603 3.8 18:10:23 10° NNW 18:16:05 81° WSW 18:21:42 10° SSE
SJ 16-02 3.0 18:14:26 10° SW 18:18:31 38° WNW 18:22:38 10° N
Cosmos 1937 Rocket 3.5 18:16:55 10° SSW 18:22:11 83° ESE 18:27:25 10° NNE
Okean 2 Rocket 3.6 18:25:01 10° SSE 18:29:10 39° E 18:33:21 10° NNE
Abrixas rocket 2.7 18:26:46 10° W 18:29:31 44° N 18:31:44 14° ENE
Cosmos 1464 Rocket 4.1 18:24:54 10° SSE 18:30:45 50° E 18:36:40 10° NNE
NOSS 2-2 (E) 3.0 18:27:52 10° SSW 18:31:20 78° SE 18:35:13 10° NE
SL-08 RB Rocket 4.1 18:27:27 10° SE 18:31:46 42° ENE 18:36:05 10° N
Okean-O 4.3 18:31:17 10° SSW 18:35:22 36° W 18:39:30 10° NNW
USA 116 3.9 18:32:10 10° N 18:35:36 67° WNW 18:39:24 10° SSW
Okean 2 4.5 18:32:27 10° NNW 18:36:29 49° W 18:40:30 10° SSW
ATLAS 2AS CENTAUR R/B 4.2 18:32:24 10° SE 18:37:03 17° ESE 18:41:43 10° ENE
Cosmos 1300 Rocket 3.8 18:33:34 10° SSE 18:37:45 46° E 18:42:00 10° NNE
CZ-2C R/B 2.9 18:36:24 10° SW 18:38:35 15° S 18:39:59 13° SSE
NOSS 2-2 (D) 2.9 18:36:33 10° SSW 18:40:01 74° SE 18:43:50 10° NE
USA 102 3.5 18:38:58 13° SE 18:44:22 42° E 18:45:14 33° NE
YAOGAN 1 4.0 18:40:40 10° SSW 18:44:43 39° W 18:48:48 10° NNW
Cosmos 1975 4.4 18:41:46 10° SSW 18:45:37 39° WNW 18:49:29 10° N
CENTAUR R/B 3.7 18:38:35 10° NNW 18:46:03 44° NE 18:51:59 19° ESE
BREEZE-M R/B 4.4 18:31:30 10° SW 18:46:12 73° SSE 18:48:53 18° ENE
H-2A R/B 2.2 18:43:50 10° S 18:48:46 73° WSW 18:53:51 10° NNW
CZ-4 R/B 3.7 18:46:32 10° SSW 18:50:10 28° W 18:53:50 10° NW
Cosmos 1674 3.7 18:48:20 10° NNE 18:51:39 27° ENE 18:52:10 26° E
ATLAS 3B R/B 4.2 18:47:20 10° NNW 18:52:29 22° NNE 18:56:56 13° ENE
Exosat Rocket 4.3 18:48:36 10° SSE 18:53:35 31° ESE 18:57:59 10° NE
ISS -3.9 18:51:06 10° SW 18:54:29 78° SSE 18:56:08 27° ENE
Cosmos 1048 Rocket 4.3 18:49:49 10° NNW 18:54:58 48° ENE 18:58:02 23° SE
Cosmos 1536 Rocket 3.8 18:51:55 10° N 18:56:15 50° ENE 18:58:59 21° SE
USA 238 DEB 4.0 18:50:34 10° NNW 18:57:41 59° NE 19:02:30 23° ESE
USA 238 4.0 18:50:40 10° NNW 18:57:47 59° NE 19:02:34 23° ESE
Cosmos 1891 Rocket 4.4 18:52:03 10° S 18:58:12 85° E 19:04:18 10° N
In-Cosmos 22 4.0 18:53:33 10° N 18:58:52 74° ENE 19:04:12 10° SSE
ARGOS 3.3 18:56:56 10° S 19:02:17 75° WSW 19:07:41 10° NNW
Cosmos 1025 Rocket 2.9 19:01:51 10° N 19:06:15 86° E 19:10:02 14° S
CZ-2C R/B 2.7 19:00:55 10° NNE 19:06:26 62° E 19:11:58 10° S
Cosmos 1707 3.3 19:05:42 10° NNW 19:09:29 56° W 19:13:13 10° S
Cosmos 2151 Rocket 3.5 19:06:07 10° S 19:10:33 76° E 19:15:03 10° NNE
KORONAS-FOTON 4.1 19:09:30 10° N 19:13:19 45° ENE 19:13:36 44° E
USA 186 2.0 19:13:02 29° S 19:14:25 66° W 19:17:38 10° NNW
Ariane Rocket 3.0 19:12:56 15° SSE 19:17:13 87° WSW 19:22:20 10° NNW
SJ-6B 2.5 19:16:15 37° SSE 19:17:39 86° ENE 19:21:25 10° NNW
CREW DRAGON DEMO-1 DEB 4.4 19:15:07 10° NW 19:17:44 26° N 19:18:00 25° NNE
Cosmos 1844 3.7 19:14:18 10° S 19:19:50 53° ESE 19:25:19 10° NE
FREGAT/IRIS 3.2 19:20:39 44° NNW 19:20:39 44° NNW 19:22:34 10° NNW
Cosmos 2263 Rocket 4.1 19:17:16 10° WSW 19:22:10 31° NW 19:27:06 10° N
Nadezhda 4 Rocket 3.9 19:17:42 10° N 19:23:51 89° E 19:29:17 14° S
Cosmos 494 Rocket 4.1 19:19:31 10° NNW 19:24:43 56° ENE 19:26:05 43° ESE
NOSS 2-2 (C) 4.5 19:21:24 10° WSW 19:24:44 39° NW 19:28:28 10° NNE
NOSS 3-2 (A) 4.0 19:17:54 10° NW 19:25:28 85° NE 19:30:19 29° SE
MOS 1 4.3 19:21:25 17° SSE 19:25:54 86° WSW 19:31:39 10° NNW
Cosmos 2034 Rocket 4.0 19:21:57 10° S 19:28:19 85° W 19:34:43 10° N
Cosmos 1844 Rocket 2.5 19:22:58 10° SSW 19:28:32 77° ESE 19:34:07 10° NNE
Cosmos 2298 Rocket 4.2 19:25:37 10° SSW 19:30:56 77° WNW 19:36:18 10° NNE
SPOT 3 Rocket 3.5 19:32:57 48° SE 19:34:11 63° ENE 19:39:17 10° N
Resurs 01 Rocket 1.9 19:42:54 52° NE 19:42:54 52° NE 19:46:51 10° N
USA 234 3.1 19:37:13 11° NE 19:43:30 66° SE 19:50:00 10° SW
SWAS 4.4 19:41:43 10° NNW 19:45:52 78° NNE 19:45:52 78° NNE
MetOp-A 4.5 19:42:59 24° S 19:46:16 63° WSW 19:51:36 10° NNW
Lacrosse 5 rocket 3.8 19:44:18 10° NW 19:47:18 18° N 19:49:28 13° NNE
Cosmos 1833 Rocket 3.8 19:46:35 10° N 19:51:25 29° NE 19:51:25 29° NE
OBJECT-B 2.3 19:52:33 36° NW 19:52:33 36° NW 19:54:43 10° NNW
Meteor 1-15 Rocket 4.4 19:47:16 10° SSW 19:52:51 72° WNW 19:58:34 10° N
Cosmos 1626 3.8 19:54:17 10° N 19:56:03 26° N 19:56:03 26° N
ARIANE 5 R/B 3.8 20:01:02 32° NNE 20:01:02 32° NNE 20:03:41 10° N
NOSS 3-2 (C) 4.0 19:52:43 10° NW 20:00:18 89° NE 20:03:03 48° SE
Cosmos 1634 Rocket 3.8 19:59:03 47° S 20:00:55 79° E 20:07:08 10° N
BREEZE-M TANK 2.8 19:58:01 10° W 20:04:38 74° WSW 20:04:38 74° WSW
Cosmos 2285 Rocket 4.1 20:02:07 10° SSW 20:08:25 77° WNW 20:14:48 10° NNE
Cosmos 1125 Rocket 4.0 20:03:18 10° SW 20:08:32 59° WNW 20:13:48 10° NNE
Okean 1 Rocket 3.6 20:08:19 54° WSW 20:08:45 57° WNW 20:13:12 10° N
Meteor 2-5 Rocket 4.2 20:19:01 10° NNW 20:24:32 57° W 20:25:28 50° SW
ATLAS 2AS CENTAUR R/B 2.9 20:18:58 10° SSW 20:26:51 74° ESE 20:34:45 10° NE
Cosmos 2026 Rocket 4.3 20:23:16 10° NNW 20:29:33 63° W 20:30:53 52° SW
Cosmos 2098 Rocket 4.4 20:23:58 10° N 20:30:00 53° NE 20:30:00 53° NE
ISS -0.6 20:28:29 10° WNW 20:29:08 14° WNW 20:29:08 14° WNW
Cosmos 2082 Rocket 3.4 20:28:31 10° NNW 20:32:16 31° NNE 20:32:16 31° NNE
CENTAUR R/B 3.4 20:29:13 10° NW 20:37:19 66° WSW 20:39:10 54° S
SPOT 1/Viking Rocket 4.5 20:43:21 43° N 20:43:21 43° N 20:46:46 10° NNW
Cosmos 2279 Rocket 4.1 20:44:35 71° NNW 20:44:35 71° NNW 20:50:14 10° N
COSMOS 2406 3.7 20:38:45 10° NNW 20:43:09 56° NNW 20:43:09 56° NNW
ATLAS 3B R/B 2.9 20:37:44 10° NNW 20:44:10 62° NNE 20:44:10 62° NNE
Meteor 1-24 Rocket 4.4 20:41:59 10° NNW 20:47:08 47° W 20:47:08 47° W
Terra 4.0 21:02:36 20° N 21:02:36 20° N 21:04:06 10° N
Cosmos 2278 Rocket 4.5 21:07:57 15° NNE 21:07:57 15° NNE 21:08:49 10° NNE
Lacrosse 4 Rocket 4.3 21:06:08 10° NNW 21:06:37 13° NNW 21:06:37 13° NNW
Resurs 01 Rocket 4.4 21:20:29 15° WNW 21:20:29 15° WNW 21:22:05 10° NW
USA 234 3.9 21:24:43 41° NNE 21:26:23 50° NNW 21:32:38 10° W
Lacrosse 5 rocket 4.4 21:24:01 10° NW 21:25:05 15° NNW 21:25:05 15° NNW
Cosmos 1833 Rocket 4.4 21:30:13 10° NW 21:33:07 29° NW 21:33:07 29° NW
ATLAS 2AS CENTAUR R/B 4.2 22:11:15 10° WSW 22:18:32 37° NW 22:25:42 10° NNE
